DW8397 Weather Reports


Display with metric or nautical units.
time (UTC)temp
F
wind
direction
speed
MPH
gust
MPH
rain 1hr
in
rain 24hr
in
rain mn
in
humidity
%
barometer
mb
20260509011550 41 217 0.0 0.0 0.00 0.00 0.00 73 1011.5
20260509010047 42 217 0.0 0.0 0.00 0.00 0.00 72 1011.2
20260509004550 43 217 0.0 0.0 0.00 0.00 0.00 70 1011.0
20260509003044 43 217 0.0 0.0 0.00 0.00 0.00 70 1010.8
20260509001543 44 217 0.0 0.0 0.00 0.00 0.00 67 1010.7
20260509000053 45 217 0.0 0.0 0.00 0.00 0.00 65 1010.5
20260508234540 45 218 0.0 0.0 0.00 0.00 0.00 65 1010.3
20260508233039 45 205 1.0 5.0 0.00 0.00 0.00 64 1010.3
20260508231539 46 249 0.0 10.0 0.00 0.00 0.00 64 1010.1
20260508230037 46 184 2.0 9.0 0.00 0.00 0.00 62 1010.1
20260508224535 46 234 1.0 11.0 0.00 0.00 0.00 62 1009.9
20260508223037 46 232 2.0 8.0 0.00 0.00 0.00 62 1010.0
20260508221537 46 184 0.0 11.0 0.00 0.00 0.00 63 1009.9
20260508220038 46 196 1.0 9.0 0.00 0.00 0.00 64 1009.8
20260508214534 46 269 6.0 15.0 0.00 0.00 0.00 64 1009.8
20260508213044 47 254 6.0 14.0 0.00 0.00 0.00 63 1009.5
20260508211534 47 229 2.0 9.0 0.00 0.00 0.00 65 1009.3
20260508210034 48 174 5.0 13.0 0.00 0.00 0.00 62 1009.3
20260508204532 48 208 8.0 19.0 0.00 0.00 0.00 57 1009.3
20260508203034 49 237 5.0 10.0 0.00 0.00 0.00 52 1009.1
20260508201529 49 265 4.0 13.0 0.00 0.00 0.00 50 1008.9
20260508200039 50 261 2.0 8.0 0.00 0.00 0.00 52 1008.9
20260508194529 51 324 6.0 14.0 0.00 0.00 0.00 45 1008.8
20260508193028 51 195 6.0 12.0 0.00 0.00 0.00 45 1008.5
20260508191531 50 311 6.0 14.0 0.00 0.00 0.00 45 1008.7
20260508190035 51 261 4.0 14.0 0.00 0.00 0.00 42 1008.7
20260508184526 52 202 8.0 17.0 0.00 0.00 0.00 44 1008.7
20260508183022 51 217 3.0 12.0 0.00 0.00 0.00 46 1008.9
20260508181541 49 240 2.0 12.0 0.00 0.00 0.00 49 1009.0
20260508180021 49 206 4.0 13.0 0.00 0.00 0.00 48 1009.0
20260508174523 48 236 6.0 14.0 0.00 0.00 0.00 45 1009.1
20260508173021 49 203 8.0 15.0 0.00 0.00 0.00 44 1009.1
20260508171520 50 296 2.0 14.0 0.00 0.00 0.00 46 1009.1
20260508170022 50 260 1.0 10.0 0.00 0.00 0.00 48 1009.0
20260508164533 49 223 4.0 7.0 0.00 0.00 0.00 49 1009.3
20260508163017 48 304 3.0 15.0 0.00 0.00 0.00 49 1009.5
20260508161517 48 209 3.0 15.0 0.00 0.00 0.00 48 1009.4
20260508160032 49 195 5.0 13.0 0.00 0.00 0.00 45 1009.4
20260508154517 49 272 6.0 13.0 0.00 0.00 0.00 45 1009.3
20260508153017 50 277 8.0 13.0 0.00 0.00 0.00 43 1009.3
20260508151513 50 347 7.0 12.0 0.00 0.00 0.00 44 1009.0
20260508150010 49 221 5.0 12.0 0.00 0.00 0.00 45 1008.8
20260508144506 47 256 7.0 18.0 0.00 0.00 0.00 49 1009.1
20260508143006 48 325 11.0 21.0 0.00 0.00 0.00 45 1009.3
20260508141504 47 309 6.0 16.0 0.00 0.00 0.00 44 1009.3
20260508140001 47 229 10.0 17.0 0.00 0.00 0.00 45 1009.4
20260508134558 46 323 8.0 13.0 0.00 0.00 0.00 47 1009.5
20260508133054 44 278 10.0 18.0 0.00 0.00 0.00 51 1009.7
20260508131558 43 330 7.0 15.0 0.00 0.00 0.00 51 1009.6
20260508130049 43 323 1.0 13.0 0.00 0.00 0.00 56 1009.5
20260508124545 43 275 2.0 9.0 0.00 0.00 0.00 60 1009.4
20260508123042 41 241 2.0 6.0 0.00 0.00 0.00 69 1009.6
20260508121537 40 180 0.0 6.0 0.00 0.00 0.00 73 1009.7
20260508120038 38 199 0.0 4.0 0.00 0.00 0.00 80 1009.7
20260508114529 36 240 0.0 3.0 0.00 0.00 0.00 85 1009.8
20260508113027 35 74 0.0 0.0 0.00 0.00 0.00 89 1009.6
20260508111525 34 74 0.0 0.0 0.00 0.00 0.00 89 1009.5
20260508110023 33 323 0.0 0.0 0.00 0.00 0.00 89 1009.2
20260508104521 33 323 0.0 0.0 0.00 0.00 0.00 89 1009.1
20260508103029 32 323 0.0 0.0 0.00 0.00 0.00 90 1009.0
20260508101528 32 323 0.0 0.0 0.00 0.00 0.00 90 1008.8
20260508100015 32 323 0.0 0.0 0.00 0.00 0.00 90 1008.5
20260508094512 31 323 0.0 0.0 0.00 0.00 0.00 89 1008.5
20260508093012 31 323 0.0 0.0 0.00 0.00 0.00 88 1008.4
20260508091512 31 323 0.0 6.0 0.00 0.00 0.00 88 1008.3
20260508090009 31 321 0.0 2.0 0.00 0.00 0.00 87 1008.2
20260508084508 31 323 0.0 4.0 0.00 0.00 0.00 86 1008.2
20260508083007 31 13 0.0 3.0 0.00 0.00 0.00 86 1008.1
20260508081505 31 13 1.0 2.0 0.00 0.00 0.00 85 1008.2
20260508080007 31 13 0.0 0.0 0.00 0.00 0.00 85 1008.1
20260508074505 31 12 0.0 0.0 0.00 0.00 0.00 84 1007.8
20260508073007 31 12 0.0 0.0 0.00 0.00 0.00 85 1007.7
20260508071503 31 12 0.0 0.0 0.00 0.00 0.00 85 1007.7
20260508070001 31 12 0.0 0.0 0.00 0.00 0.00 83 1007.8
20260508064615 31 12 0.0 0.0 0.00 0.00 0.00 83 1007.8
20260508063108 32 12 0.0 0.0 0.00 0.00 0.00 82 1007.9
20260508061558 32 12 0.0 0.0 0.00 0.00 0.00 81 1008.0
20260508060054 33 12 0.0 0.0 0.00 0.00 0.00 80 1008.0
20260508054601 33 12 0.0 0.0 0.00 0.00 0.00 79 1008.1
20260508053051 33 12 0.0 0.0 0.00 0.00 0.00 78 1008.0
20260508051552 34 12 0.0 0.0 0.00 0.00 0.00 78 1007.9
20260508050046 35 12 0.0 0.0 0.00 0.00 0.00 77 1007.8
20260508044544 35 12 0.0 0.0 0.00 0.00 0.00 76 1008.3
20260508043046 35 12 0.0 0.0 0.00 0.00 0.00 75 1008.3
20260508041540 36 12 0.0 0.0 0.00 0.00 0.00 74 1008.4
20260508040041 36 12 0.0 0.0 0.00 0.00 0.00 74 1008.4
20260508034536 37 12 0.0 0.0 0.00 0.00 0.00 73 1008.4
20260508033034 37 12 0.0 0.0 0.00 0.00 0.00 70 1008.5
20260508031533 38 13 0.0 0.0 0.00 0.00 0.00 70 1008.3
20260508030031 38 12 0.0 0.0 0.00 0.00 0.00 67 1008.4
20260508024541 40 12 0.0 0.0 0.00 0.00 0.00 67 1008.4
20260508023030 41 12 0.0 0.0 0.00 0.00 0.00 64 1008.3
20260508021528 41 12 0.0 0.0 0.00 0.00 0.00 62 1008.2
20260508020027 42 12 0.0 0.0 0.00 0.00 0.00 60 1008.2
20260508014543 43 17 0.0 6.0 0.00 0.01 0.00 57 1008.0
20260508013028 43 5 0.0 8.0 0.00 0.01 0.00 56 1007.7